GW0285 Weather Reports


time (UTC)temp
C
wind
direction
speed
KPH
gust
KPH
rain 1hr
cm
rain 24hr
cm
rain mn
cm
humidity
%
barometer
mb
20260507130903 13 107 0.0 3.2 0.00 0.00 0.00 66 1016.3
20260507130003 13 152 0.0 8.0 0.00 0.00 0.00 68 1016.3
20260507125403 12 0 0.0 0.0 0.00 0.00 0.00 68 1016.2
20260507124503 13 54 0.0 11.3 0.00 0.00 0.00 70 1016.4
20260507123624 13 336 0.0 1.6 0.00 0.00 0.00 70 1016.1
20260507122724 13 86 0.0 11.3 0.00 0.00 0.00 70 1016.3
20260507121803 13 0 0.0 0.0 0.00 0.00 0.00 70 1016.1
20260507120903 13 113 0.0 14.5 0.00 0.00 0.00 71 1016.0
20260507120003 13 0 0.0 0.0 0.00 0.00 0.00 71 1015.9
20260507115424 13 101 0.0 4.8 0.00 0.00 0.00 72 1016.1
20260507114524 13 0 0.0 0.0 0.00 0.00 0.00 71 1016.3
20260507113624 13 357 0.0 3.2 0.00 0.00 0.00 71 1016.1
20260507112703 13 0 0.0 0.0 0.00 0.00 0.00 70 1016.0
20260507111803 15 196 0.0 4.8 0.00 0.00 0.00 68 1016.0
20260507110924 15 0 0.0 0.0 0.00 0.00 0.00 65 1015.8
20260507110003 13 0 0.0 0.0 0.00 0.00 0.00 68 1016.0
20260507105403 13 357 0.0 3.2 0.00 0.00 0.00 68 1015.8
20260507104503 13 55 0.0 4.8 0.00 0.00 0.00 69 1016.0
20260507103603 13 55 0.0 4.8 0.00 0.00 0.00 69 1015.8
20260507102723 13 0 0.0 0.0 0.00 0.00 0.00 69 1016.0
20260507101803 13 86 0.0 3.2 0.00 0.00 0.00 65 1015.8
20260507100903 15 42 0.0 3.2 0.00 0.00 0.00 62 1015.8
20260507100002 16 54 0.0 3.2 0.00 0.00 0.00 54 1016.1
20260507095402 15 0 0.0 0.0 0.00 0.00 0.00 57 1015.8
20260507094502 15 267 0.0 3.2 0.00 0.00 0.00 59 1016.2
20260507093624 13 99 0.0 4.8 0.00 0.00 0.00 61 1015.8
20260507092703 14 111 0.0 8.0 0.00 0.00 0.00 61 1016.0
20260507091803 13 77 0.0 3.2 0.00 0.00 0.00 59 1015.9
20260507090902 14 145 1.6 16.1 0.00 0.00 0.00 64 1015.8
20260507090003 14 129 0.0 1.6 0.00 0.00 0.00 64 1016.0
20260507085424 13 119 0.0 4.8 0.00 0.00 0.00 64 1015.9
20260507084502 13 97 0.0 3.2 0.00 0.00 0.00 64 1016.0
20260507083603 13 0 0.0 0.0 0.00 0.00 0.00 65 1016.1
20260507082702 13 302 0.0 4.8 0.00 0.00 0.00 66 1016.0
20260507081803 12 357 0.0 4.8 0.00 0.00 0.00 67 1016.0
20260507080903 13 100 0.0 14.5 0.00 0.00 0.00 66 1015.9
20260507080003 12 0 0.0 0.0 0.00 0.00 0.00 68 1015.9
20260507075403 12 4 0.0 4.8 0.00 0.00 0.00 68 1015.9
20260507074502 13 0 0.0 0.0 0.00 0.00 0.00 69 1015.9
20260507073602 12 135 0.0 3.2 0.00 0.00 0.00 70 1015.8
20260507072723 12 0 0.0 0.0 0.00 0.00 0.00 72 1015.9
20260507071802 12 0 0.0 0.0 0.00 0.00 0.00 74 1016.0
20260507070902 11 0 0.0 0.0 0.00 0.00 0.00 75 1015.6
20260507070003 10 0 0.0 0.0 0.00 0.00 0.00 78 1015.9
20260507065424 10 0 0.0 0.0 0.00 0.00 0.00 78 1015.7
20260507064502 10 0 0.0 0.0 0.00 0.00 0.00 78 1015.6
20260507063602 10 0 0.0 0.0 0.00 0.00 0.00 79 1015.8
20260507062702 10 0 0.0 0.0 0.00 0.00 0.00 80 1015.7
20260507061803 9 0 0.0 0.0 0.00 0.00 0.00 82 1015.6
20260507060903 8 0 0.0 0.0 0.00 0.00 0.00 85 1015.6
20260507060003 8 0 0.0 0.0 0.00 0.00 0.00 91 1015.6
20260507055402 7 0 0.0 0.0 0.00 0.00 0.00 93 1015.5
20260507054503 6 0 0.0 0.0 0.00 0.00 0.00 94 1015.5
20260507053603 6 0 0.0 0.0 0.00 0.00 0.00 94 1015.4
20260507052703 6 0 0.0 0.0 0.00 0.00 0.00 95 1015.6
20260507051802 6 0 0.0 0.0 0.00 0.00 0.00 95 1015.5
20260507050924 5 0 0.0 0.0 0.00 0.00 0.00 94 1015.5
20260507050024 5 0 0.0 0.0 0.00 0.00 0.00 95 1015.5
20260507045403 5 0 0.0 0.0 0.00 0.00 0.00 94 1015.4
20260507044503 5 0 0.0 0.0 0.00 0.00 0.00 94 1015.3
20260507043624 5 0 0.0 0.0 0.00 0.00 0.00 94 1015.5
20260507042703 5 0 0.0 0.0 0.00 0.00 0.00 94 1015.5
20260507041803 5 0 0.0 0.0 0.00 0.00 0.00 94 1015.5
20260507040902 5 0 0.0 0.0 0.00 0.00 0.00 94 1015.3
20260507040024 5 0 0.0 0.0 0.00 0.00 0.00 93 1015.4
20260507035403 5 0 0.0 0.0 0.00 0.00 0.00 93 1015.1
20260507034503 5 0 0.0 0.0 0.00 0.00 0.00 93 1015.2
20260507033603 5 0 0.0 0.0 0.00 0.00 0.00 93 1015.2
20260507032703 5 0 0.0 0.0 0.00 0.00 0.00 93 1015.2
20260507031803 5 0 0.0 0.0 0.00 0.00 0.00 92 1015.2
20260507030903 5 0 0.0 0.0 0.00 0.00 0.00 92 1015.1
20260507030003 6 0 0.0 0.0 0.00 0.00 0.00 92 1015.2
20260507025403 5 0 0.0 0.0 0.00 0.00 0.00 92 1015.1
20260507024524 6 0 0.0 0.0 0.00 0.00 0.00 92 1014.9
20260507023603 6 0 0.0 0.0 0.00 0.00 0.00 91 1015.1
20260507022703 6 0 0.0 0.0 0.00 0.00 0.00 91 1015.2
20260507021803 6 0 0.0 0.0 0.00 0.00 0.00 91 1015.1
20260507020903 6 0 0.0 0.0 0.00 0.00 0.00 90 1014.9
20260507020003 6 0 0.0 0.0 0.00 0.00 0.00 90 1015.0
20260507015424 6 0 0.0 0.0 0.00 0.00 0.00 90 1015.0
20260507014503 6 0 0.0 0.0 0.00 0.00 0.00 89 1015.0
20260507013603 6 0 0.0 0.0 0.00 0.00 0.00 89 1015.1
20260507012724 6 0 0.0 0.0 0.00 0.00 0.00 88 1014.9
20260507011803 6 0 0.0 0.0 0.00 0.00 0.00 88 1014.9
20260507010903 6 0 0.0 0.0 0.00 0.00 0.00 88 1014.8
20260507010003 6 0 0.0 0.0 0.00 0.00 0.00 87 1014.9
20260507005403 6 0 0.0 0.0 0.00 0.00 0.00 87 1015.1
20260507004524 6 0 0.0 0.0 0.00 0.00 0.00 86 1015.0
20260507003603 6 0 0.0 0.0 0.00 0.00 0.00 86 1014.9
20260507002703 6 0 0.0 0.0 0.00 0.00 0.00 86 1014.8
20260507001803 6 0 0.0 0.0 0.00 0.00 0.00 85 1015.1
20260507000903 6 0 0.0 0.0 0.00 0.00 0.00 85 1015.0
20260507000003 6 0 0.0 0.0 0.00 0.00 0.00 84 1014.9
20260506235403 6 0 0.0 0.0 0.00 0.00 0.00 84 1014.9
20260506234503 6 0 0.0 0.0 0.00 0.00 0.00 83 1015.0
20260506233603 7 0 0.0 0.0 0.00 0.00 0.00 82 1014.9
20260506232703 7 0 0.0 0.0 0.00 0.00 0.00 81 1014.8
20260506231803 7 0 0.0 0.0 0.00 0.00 0.00 79 1014.9
20260506230903 8 0 0.0 0.0 0.00 0.00 0.00 78 1014.6
20260506230004 8 0 0.0 0.0 0.00 0.00 0.00 77 1014.6
20260506225403 8 0 0.0 0.0 0.00 0.00 0.00 78 1014.8
20260506224503 8 0 0.0 0.0 0.00 0.00 0.00 77 1014.6
20260506223603 8 0 0.0 0.0 0.00 0.00 0.00 78 1014.5
20260506222703 8 0 0.0 0.0 0.00 0.00 0.00 78 1014.7
20260506221803 8 0 0.0 0.0 0.00 0.00 0.00 78 1014.5
20260506220903 8 0 0.0 0.0 0.00 0.00 0.00 78 1014.7
20260506220003 8 0 0.0 0.0 0.00 0.00 0.00 77 1014.5
20260506215403 8 0 0.0 0.0 0.00 0.00 0.00 76 1014.4
20260506214503 8 0 0.0 0.0 0.00 0.00 0.00 75 1014.5
20260506213603 9 0 0.0 0.0 0.00 0.00 0.00 74 1014.5
20260506212703 10 0 0.0 0.0 0.00 0.00 0.00 73 1014.2
20260506211803 10 338 0.0 4.8 0.00 0.00 0.00 73 1014.3
20260506210903 10 338 0.0 4.8 0.00 0.00 0.00 73 1014.4
20260506210003 10 0 0.0 0.0 0.00 0.00 0.00 74 1014.3
20260506205403 10 0 0.0 0.0 0.00 0.00 0.00 74 1014.1
20260506204503 10 0 0.0 0.0 0.00 0.00 0.00 74 1014.2
20260506203603 10 0 0.0 0.0 0.00 0.00 0.00 73 1014.2
20260506202703 10 0 0.0 0.0 0.00 0.00 0.00 73 1014.0
20260506201803 10 0 0.0 0.0 0.00 0.00 0.00 73 1014.0
20260506200903 10 0 0.0 0.0 0.00 0.00 0.00 73 1014.0
20260506200004 11 0 0.0 0.0 0.00 0.00 0.00 72 1014.0
20260506195403 11 0 0.0 0.0 0.00 0.00 0.00 71 1013.8
20260506193603 11 0 0.0 0.0 0.00 0.00 0.00 69 1013.7
20260506192724 11 0 0.0 0.0 0.00 0.00 0.00 68 1013.7
20260506191824 11 0 0.0 0.0 0.00 0.00 0.00 68 1013.5
20260506190903 12 342 0.0 3.2 0.00 0.00 0.00 66 1013.5
20260506190003 12 0 0.0 0.0 0.00 0.00 0.00 65 1013.3
20260506185403 12 0 0.0 0.0 0.00 0.00 0.00 64 1013.3
20260506184503 12 0 0.0 0.0 0.00 0.00 0.00 63 1013.3
20260506183604 12 0 0.0 0.0 0.00 0.00 0.00 60 1013.2
20260506182703 12 0 0.0 0.0 0.00 0.00 0.00 59 1013.3
20260506181803 12 0 0.0 0.0 0.00 0.00 0.00 58 1013.2
20260506180903 12 312 0.0 3.2 0.00 0.00 0.00 59 1012.9
20260506180004 12 0 0.0 0.0 0.00 0.00 0.00 59 1013.1
20260506175403 12 0 0.0 0.0 0.00 0.00 0.00 59 1012.9
20260506174503 13 0 0.0 0.0 0.00 0.00 0.00 60 1012.9
20260506173603 13 316 0.0 4.8 0.00 0.00 0.00 59 1012.9
20260506172703 13 312 0.0 4.8 0.00 0.00 0.00 59 1012.7
20260506171803 13 0 0.0 0.0 0.00 0.00 0.00 59 1012.6
20260506170903 13 337 0.0 4.8 0.00 0.00 0.00 59 1012.7
20260506170004 13 0 0.0 0.0 0.00 0.00 0.00 56 1012.9
20260506165424 13 322 0.0 11.3 0.00 0.00 0.00 56 1012.7
20260506164503 13 0 0.0 0.0 0.00 0.00 0.00 54 1012.7
20260506163603 13 0 0.0 0.0 0.00 0.00 0.00 56 1012.7
20260506162703 13 31 0.0 14.5 0.00 0.00 0.00 55 1012.8
20260506161803 14 0 0.0 0.0 0.00 0.00 0.00 54 1012.8
20260506160903 13 0 0.0 0.0 0.00 0.00 0.00 52 1012.9
20260506160003 13 0 0.0 0.0 0.00 0.00 0.00 54 1012.7
20260506155403 14 0 0.0 0.0 0.00 0.00 0.00 53 1012.8
20260506154503 14 0 0.0 0.0 0.00 0.00 0.00 54 1013.0
20260506153603 13 331 0.0 3.2 0.00 0.00 0.00 52 1013.2
20260506152703 14 0 0.0 0.0 0.00 0.00 0.00 51 1012.8
20260506151803 14 317 0.0 8.0 0.00 0.00 0.00 54 1013.0
20260506150903 14 360 0.0 4.8 0.00 0.00 0.00 51 1013.0
20260506150024 15 330 0.0 8.0 0.00 0.00 0.00 52 1013.0
20260506145403 14 0 0.0 0.0 0.00 0.00 0.00 52 1012.8
20260506144503 13 318 0.0 14.5 0.00 0.00 0.00 51 1013.1
20260506143624 14 323 0.0 14.5 0.00 0.00 0.00 52 1013.2
20260506142703 13 0 0.0 0.0 0.00 0.00 0.00 53 1013.2
20260506141803 14 303 0.0 11.3 0.00 0.00 0.00 51 1013.2
20260506140903 13 4 0.0 8.0 0.00 0.00 0.00 51 1013.1
20260506140003 14 0 0.0 0.0 0.00 0.00 0.00 50 1013.1
20260506135403 15 316 0.0 3.2 0.00 0.00 0.00 47 1013.3
20260506134525 14 346 0.0 14.5 0.00 0.00 0.00 52 1013.0
20260506133603 15 20 0.0 11.3 0.00 0.00 0.00 47 1013.2
20260506132703 15 291 0.0 4.8 0.00 0.00 0.00 51 1013.0
20260506131803 13 314 0.0 11.3 0.00 0.00 0.00 52 1012.8